Time,TemperatureF,DewpointF,PressureIn,WindDirection,WindDirectionDegrees,WindSpeedMPH,WindSpeedGustMPH,Humidity,HourlyPrecipIn,Conditions,Clouds,dailyrainin,SoftwareType,DateUTC
2013-03-25 00:00:00,54.2,52.5,29.92,SW,225,0.0,0.0,94,0.00,,---,0.00,VWS V14.01,2013-03-25 07:00:00,
2013-03-25 00:08:00,54.0,52.0,29.92,SW,234,0.0,0.0,94,0.00,,,0.00,weatherlink.com 1.10,2013-03-25 07:08:00,
2013-03-25 00:15:00,53.8,52.1,29.92,SW,225,0.0,0.0,94,0.00,,---,0.00,VWS V14.01,2013-03-25 07:15:00,
2013-03-25 00:23:00,53.5,52.0,29.92,SW,234,0.0,0.0,94,0.00,,,0.00,weatherlink.com 1.10,2013-03-25 07:23:00,
2013-03-25 00:30:00,53.3,51.6,29.92,SW,225,0.0,0.0,94,0.00,,---,0.00,VWS V14.01,2013-03-25 07:30:00,
2013-03-25 00:38:00,53.0,51.0,29.92,SW,234,0.0,0.0,94,0.00,,,0.00,weatherlink.com 1.10,2013-03-25 07:38:00,
2013-03-25 00:45:00,53.0,51.9,29.92,SW,225,0.0,0.0,96,0.00,,---,0.00,VWS V14.01,2013-03-25 07:45:00,
2013-03-25 00:53:00,53.3,52.0,29.92,SW,234,0.0,0.0,96,0.00,,,0.00,weatherlink.com 1.10,2013-03-25 07:53:00,
2013-03-25 01:00:00,53.5,52.4,29.92,SW,225,0.0,0.0,96,0.00,,---,0.00,VWS V14.01,2013-03-25 08:00:00,
2013-03-25 01:08:00,53.7,53.0,29.92,SW,234,0.0,0.0,97,0.00,,,0.00,weatherlink.com 1.10,2013-03-25 08:08:00,
2013-03-25 01:15:00,53.8,53.0,29.92,SW,225,0.0,1.0,97,0.00,,---,0.00,VWS V14.01,2013-03-25 08:15:00,
2013-03-25 01:23:00,54.1,53.0,29.92,SW,234,0.0,1.0,97,0.00,,,0.00,weatherlink.com 1.10,2013-03-25 08:23:00,
2013-03-25 01:30:00,54.4,53.6,29.92,SW,225,0.0,2.0,97,0.00,,---,0.00,VWS V14.01,2013-03-25 08:30:00,
2013-03-25 01:38:00,55.0,55.0,29.92,SW,234,0.0,2.0,98,0.00,,,0.00,weatherlink.com 1.10,2013-03-25 08:38:00,
2013-03-25 01:45:00,55.1,54.3,29.92,SW,225,0.0,2.0,97,0.00,,---,0.00,VWS V14.01,2013-03-25 08:45:00,
2013-03-25 01:53:00,55.1,54.0,29.92,SW,234,0.0,0.0,97,0.00,,,0.00,weatherlink.com 1.10,2013-03-25 08:53:00,
2013-03-25 02:00:00,55.0,54.2,29.92,SW,225,0.0,0.0,97,0.00,,---,0.00,VWS V14.01,2013-03-25 09:00:00,
2013-03-25 02:08:00,55.0,54.0,29.92,SW,234,0.0,0.0,97,0.00,,,0.00,weatherlink.com 1.10,2013-03-25 09:08:00,
2013-03-25 02:15:00,54.9,54.1,29.92,SW,225,0.0,0.0,97,0.00,,---,0.00,VWS V14.01,2013-03-25 09:15:00,
2013-03-25 02:23:00,54.9,54.0,29.91,SW,234,0.0,0.0,97,0.00,,,0.00,weatherlink.com 1.10,2013-03-25 09:23:00,
2013-03-25 02:30:00,54.8,54.0,29.92,SW,225,0.0,0.0,97,0.00,,---,0.00,VWS V14.01,2013-03-25 09:30:00,
2013-03-25 02:38:00,54.8,54.0,29.91,SW,232,1.0,2.0,97,0.00,,,0.00,weatherlink.com 1.10,2013-03-25 09:38:00,
2013-03-25 02:45:00,54.9,54.1,29.91,SW,225,0.0,2.0,97,0.00,,---,0.00,VWS V14.01,2013-03-25 09:45:00,
2013-03-25 02:53:00,55.1,54.0,29.91,SW,232,0.0,1.0,97,0.00,,,0.00,weatherlink.com 1.10,2013-03-25 09:53:00,
2013-03-25 03:00:00,55.3,54.5,29.91,SW,225,0.0,1.0,97,0.00,,---,0.00,VWS V14.01,2013-03-25 10:00:00,
2013-03-25 03:08:00,55.5,55.0,29.91,SE,131,1.0,3.0,97,0.00,,,0.00,weatherlink.com 1.10,2013-03-25 10:08:00,
2013-03-25 03:15:00,55.5,54.7,29.91,SE,135,0.0,3.0,97,0.00,,---,0.00,VWS V14.01,2013-03-25 10:15:00,
2013-03-25 03:23:00,55.5,55.0,29.91,SE,134,0.0,2.0,97,0.00,,,0.00,weatherlink.com 1.10,2013-03-25 10:23:00,
2013-03-25 03:30:00,55.4,54.6,29.91,SE,135,0.0,2.0,97,0.00,,---,0.00,VWS V14.01,2013-03-25 10:30:00,
2013-03-25 03:38:00,55.3,55.0,29.90,SE,134,0.0,1.0,97,0.00,,,0.00,weatherlink.com 1.10,2013-03-25 10:38:00,
2013-03-25 03:45:00,55.1,54.3,29.91,SE,135,0.0,1.0,97,0.00,,---,0.00,VWS V14.01,2013-03-25 10:45:00,
2013-03-25 03:53:00,55.1,54.0,29.91,SE,135,0.0,1.0,97,0.00,,,0.00,weatherlink.com 1.10,2013-03-25 10:53:00,
2013-03-25 04:00:00,55.0,54.2,29.91,East,90,0.0,3.0,97,0.00,,---,0.00,VWS V14.01,2013-03-25 11:00:00,
2013-03-25 04:08:00,55.0,54.0,29.90,ESE,105,1.0,3.0,97,0.00,,,0.00,weatherlink.com 1.10,2013-03-25 11:08:00,
2013-03-25 04:15:00,55.0,54.2,29.91,ESE,112,1.0,3.0,97,0.00,,---,0.00,VWS V14.01,2013-03-25 11:15:00,
2013-03-25 04:23:00,55.0,54.0,29.91,ESE,104,1.0,2.0,97,0.00,,,0.00,weatherlink.com 1.10,2013-03-25 11:23:00,
2013-03-25 04:30:00,54.9,54.1,29.91,ESE,112,0.0,2.0,97,0.00,,---,0.00,VWS V14.01,2013-03-25 11:30:00,
2013-03-25 04:38:00,54.9,54.0,29.91,ESE,104,0.0,2.0,97,0.00,,,0.00,weatherlink.com 1.10,2013-03-25 11:38:00,
2013-03-25 04:45:00,54.9,54.1,29.91,ESE,112,0.0,2.0,97,0.00,,---,0.00,VWS V14.01,2013-03-25 11:45:00,
2013-03-25 04:53:00,54.9,54.0,29.91,ESE,104,0.0,1.0,97,0.00,,,0.00,weatherlink.com 1.10,2013-03-25 11:53:00,
2013-03-25 05:00:00,54.9,54.1,29.92,ESE,112,0.0,2.0,97,0.00,,---,0.00,VWS V14.01,2013-03-25 12:00:00,
2013-03-25 05:08:00,54.9,54.0,29.92,ESE,104,0.0,1.0,97,0.00,,,0.00,weatherlink.com 1.10,2013-03-25 12:08:00,
2013-03-25 05:15:00,54.9,54.1,29.92,ESE,112,0.0,1.0,97,0.00,,---,0.00,VWS V14.01,2013-03-25 12:15:00,
2013-03-25 05:23:00,54.9,54.0,29.92,ESE,104,0.0,0.0,97,0.00,,,0.00,weatherlink.com 1.10,2013-03-25 12:23:00,
2013-03-25 05:30:00,55.0,54.2,29.92,ESE,112,0.0,1.0,97,0.00,,---,0.00,VWS V14.01,2013-03-25 12:30:00,
2013-03-25 05:38:00,55.0,54.0,29.93,ESE,104,0.0,2.0,97,0.00,,,0.00,weatherlink.com 1.10,2013-03-25 12:38:00,
2013-03-25 05:45:00,54.9,54.1,29.93,ESE,112,0.0,2.0,97,0.00,,---,0.00,VWS V14.01,2013-03-25 12:45:00,
2013-03-25 05:53:00,55.0,54.0,29.93,ESE,104,0.0,1.0,97,0.00,,,0.00,weatherlink.com 1.10,2013-03-25 12:53:00,
2013-03-25 06:00:00,55.0,54.2,29.92,ESE,112,0.0,2.0,97,0.00,,---,0.00,VWS V14.01,2013-03-25 13:00:00,
2013-03-25 06:08:00,55.0,54.0,29.93,ESE,106,0.0,3.0,97,0.00,,,0.00,weatherlink.com 1.10,2013-03-25 13:08:00,
2013-03-25 06:15:00,55.1,54.3,29.93,ESE,112,0.0,3.0,97,0.00,,---,0.00,VWS V14.01,2013-03-25 13:15:00,
2013-03-25 06:23:00,55.0,54.0,29.93,ESE,103,0.0,2.0,97,0.00,,,0.00,weatherlink.com 1.10,2013-03-25 13:23:00,
2013-03-25 06:30:00,55.0,54.2,29.93,ESE,112,1.0,3.0,97,0.00,,---,0.00,VWS V14.01,2013-03-25 13:30:00,
2013-03-25 06:38:00,55.0,54.0,29.93,East,95,1.0,3.0,97,0.00,,,0.00,weatherlink.com 1.10,2013-03-25 13:38:00,
2013-03-25 06:45:00,54.9,54.1,29.93,East,90,0.0,3.0,97,0.00,,---,0.00,VWS V14.01,2013-03-25 13:45:00,
2013-03-25 06:53:00,54.9,54.0,29.94,East,96,0.0,1.0,97,0.00,,,0.00,weatherlink.com 1.10,2013-03-25 13:53:00,
2013-03-25 07:00:00,55.0,54.2,29.94,East,90,0.0,1.0,97,0.00,,---,0.00,VWS V14.01,2013-03-25 14:00:00,
2013-03-25 07:08:00,55.1,54.0,29.94,East,96,0.0,1.0,97,0.00,,,0.00,weatherlink.com 1.10,2013-03-25 14:08:00,
2013-03-25 07:15:00,55.1,54.3,29.94,SSE,158,0.0,4.0,97,0.00,,---,0.00,VWS V14.01,2013-03-25 14:15:00,
2013-03-25 07:23:00,55.1,54.0,29.94,ESE,120,0.0,3.0,97,0.00,,,0.00,weatherlink.com 1.10,2013-03-25 14:23:00,
2013-03-25 07:30:00,55.2,54.4,29.94,ESE,112,0.0,3.0,97,0.00,,---,0.00,VWS V14.01,2013-03-25 14:30:00,
2013-03-25 07:38:00,55.3,55.0,29.94,ENE,64,1.0,3.0,97,0.00,,,0.00,weatherlink.com 1.10,2013-03-25 14:38:00,
2013-03-25 07:45:00,55.5,54.7,29.94,ENE,68,1.0,4.0,97,0.00,,---,0.00,VWS V14.01,2013-03-25 14:45:00,
2013-03-25 07:53:00,55.5,55.0,29.95,ENE,65,0.0,4.0,97,0.00,,,0.00,weatherlink.com 1.10,2013-03-25 14:53:00,
2013-03-25 08:00:00,55.6,54.8,29.95,ENE,68,1.0,4.0,97,0.00,,---,0.00,VWS V14.01,2013-03-25 15:00:00,
2013-03-25 08:08:00,55.8,55.0,29.95,ENE,77,0.0,3.0,96,0.00,,,0.00,weatherlink.com 1.10,2013-03-25 15:08:00,
2013-03-25 08:15:00,55.8,54.7,29.95,ENE,68,1.0,3.0,96,0.00,,---,0.00,VWS V14.01,2013-03-25 15:15:00,
2013-03-25 08:23:00,55.9,55.0,29.95,ENE,74,0.0,2.0,96,0.00,,,0.00,weatherlink.com 1.10,2013-03-25 15:23:00,
2013-03-25 08:30:00,56.0,54.9,29.95,ENE,68,0.0,2.0,96,0.00,,---,0.00,VWS V14.01,2013-03-25 15:30:00,
2013-03-25 08:38:00,56.2,55.0,29.95,ENE,74,0.0,2.0,96,0.00,,,0.00,weatherlink.com 1.10,2013-03-25 15:38:00,
2013-03-25 08:45:00,56.4,55.3,29.95,ENE,68,0.0,2.0,96,0.00,,---,0.00,VWS V14.01,2013-03-25 15:45:00,
2013-03-25 08:53:00,56.7,56.0,29.96,East,91,2.0,3.0,96,0.00,,,0.00,weatherlink.com 1.10,2013-03-25 15:53:00,
2013-03-25 09:00:00,56.9,55.5,29.96,East,90,0.0,3.0,95,0.00,,---,0.00,VWS V14.01,2013-03-25 16:00:00,
2013-03-25 09:08:00,57.4,56.0,29.96,East,80,0.0,4.0,94,0.00,,,0.00,weatherlink.com 1.10,2013-03-25 16:08:00,
2013-03-25 09:15:00,57.6,55.9,29.96,East,90,1.0,4.0,94,0.00,,---,0.00,VWS V14.01,2013-03-25 16:15:00,
2013-03-25 09:23:00,58.4,56.0,29.96,ESE,106,0.0,4.0,93,0.00,,,0.00,weatherlink.com 1.10,2013-03-25 16:23:00,
2013-03-25 09:30:00,58.7,56.4,29.96,ESE,112,1.0,4.0,92,0.00,,---,0.00,VWS V14.01,2013-03-25 16:30:00,
2013-03-25 09:38:00,59.8,57.0,29.96,SSE,160,2.0,4.0,89,0.00,,,0.00,weatherlink.com 1.10,2013-03-25 16:38:00,
2013-03-25 09:45:00,60.2,56.6,29.96,ESE,112,1.0,4.0,88,0.00,,---,0.00,VWS V14.01,2013-03-25 16:45:00,
2013-03-25 09:54:00,60.7,56.0,29.96,South,185,0.0,5.0,85,0.00,,,0.00,weatherlink.com 1.10,2013-03-25 16:54:00,
2013-03-25 10:00:00,60.8,56.3,29.96,South,180,2.0,6.0,85,0.00,,---,0.00,VWS V14.01,2013-03-25 17:00:00,
2013-03-25 10:09:00,61.7,57.0,29.96,SE,135,0.0,6.0,84,0.00,,,0.00,weatherlink.com 1.10,2013-03-25 17:09:00,
2013-03-25 10:15:00,62.2,56.6,29.96,SSE,158,1.0,6.0,82,0.00,,---,0.00,VWS V14.01,2013-03-25 17:15:00,
2013-03-25 10:24:00,63.4,57.0,29.96,SSE,167,0.0,5.0,80,0.00,,,0.00,weatherlink.com 1.10,2013-03-25 17:24:00,
2013-03-25 10:34:00,62.2,56.6,29.96,SSE,158,1.0,6.0,82,0.00,,---,0.00,VWS V14.01,2013-03-25 17:34:00,
2013-03-25 10:39:00,65.1,57.7,29.96,South,170,0.0,3.0,77,0.00,,---,0.00,VWS V14.01,2013-03-25 17:39:00,
2013-03-25 10:44:00,65.4,56.9,29.96,SSE,168,0.0,3.0,74,0.00,,---,0.00,VWS V14.01,2013-03-25 17:44:00,
2013-03-25 10:49:00,65.6,57.5,29.96,SW,236,2.0,2.0,75,0.00,,---,0.00,VWS V14.01,2013-03-25 17:49:00,
2013-03-25 10:54:00,65.3,57.2,29.96,WSW,241,2.0,2.0,75,0.00,,---,0.00,VWS V14.01,2013-03-25 17:54:00,
2013-03-25 10:59:00,65.5,57.0,29.96,SSW,209,2.0,4.0,74,0.00,,---,0.00,VWS V14.01,2013-03-25 17:59:00,
2013-03-25 11:04:00,65.6,57.8,29.96,WSW,245,2.0,2.0,76,0.00,,---,0.00,VWS V14.01,2013-03-25 18:04:00,
2013-03-25 11:09:00,66.1,57.2,29.96,South,181,0.0,2.0,73,0.00,,---,0.00,VWS V14.01,2013-03-25 18:09:00,
2013-03-25 11:14:00,66.6,56.9,29.96,South,179,0.0,5.0,71,0.00,,---,0.00,VWS V14.01,2013-03-25 18:14:00,
2013-03-25 11:19:00,66.4,57.1,29.96,West,265,2.0,5.0,72,0.00,,---,0.00,VWS V14.01,2013-03-25 18:19:00,
2013-03-25 11:24:00,66.2,57.7,29.96,South,190,4.0,5.0,74,0.00,,---,0.00,VWS V14.01,2013-03-25 18:24:00,
2013-03-25 11:29:00,66.1,57.6,29.96,WSW,243,3.0,5.0,74,0.00,,---,0.00,VWS V14.01,2013-03-25 18:29:00,
2013-03-25 11:34:00,65.6,57.5,29.95,West,269,4.0,6.0,75,0.00,,---,0.00,VWS V14.01,2013-03-25 18:34:00,
2013-03-25 11:39:00,65.6,57.8,29.95,SW,219,2.0,7.0,76,0.00,,---,0.00,VWS V14.01,2013-03-25 18:39:00,
2013-03-25 11:45:00,65.7,58.0,29.95,SW,223,2.0,7.0,75,0.00,,,0.00,weatherlink.com 1.10,2013-03-25 18:45:00,
2013-03-25 12:00:00,66.3,59.0,29.95,SSW,194,0.0,6.0,76,0.00,,,0.00,weatherlink.com 1.10,2013-03-25 19:00:00,
2013-03-25 12:15:00,68.0,58.0,29.94,SSW,198,3.0,7.0,70,0.00,,,0.00,weatherlink.com 1.10,2013-03-25 19:15:00,
2013-03-25 12:30:00,68.5,57.0,29.94,SSW,192,3.0,8.0,66,0.00,,,0.00,weatherlink.com 1.10,2013-03-25 19:30:00,
2013-03-25 12:45:00,68.9,56.0,29.93,SSW,213,3.0,8.0,63,0.00,,,0.00,weatherlink.com 1.10,2013-03-25 19:45:00,
2013-03-25 13:00:00,68.9,56.0,29.92,SSW,213,0.0,7.0,63,0.00,,,0.00,weatherlink.com 1.10,2013-03-25 20:00:00,
2013-03-25 13:15:00,68.5,57.1,29.92,SSW,202,3.0,8.0,67,0.00,,---,0.00,VWS V14.01,2013-03-25 20:15:00,
2013-03-25 13:16:00,68.2,57.0,29.92,SSW,200,3.0,8.0,67,0.00,,,0.00,weatherlink.com 1.10,2013-03-25 20:16:00,
2013-03-25 13:30:00,68.3,55.7,29.91,SW,225,3.0,8.0,64,0.00,,---,0.00,VWS V14.01,2013-03-25 20:30:00,
2013-03-25 13:31:00,68.3,56.0,29.91,South,188,3.0,5.0,66,0.00,,,0.00,weatherlink.com 1.10,2013-03-25 20:31:00,
2013-03-25 13:45:00,69.0,56.8,29.91,SSW,202,3.0,9.0,65,0.00,,---,0.00,VWS V14.01,2013-03-25 20:45:00,
2013-03-25 13:46:00,69.0,56.0,29.91,SSW,192,4.0,8.0,64,0.00,,,0.00,weatherlink.com 1.10,2013-03-25 20:46:00,
2013-03-25 14:00:00,68.2,56.4,29.91,WSW,248,3.0,7.0,66,0.00,,---,0.00,VWS V14.01,2013-03-25 21:00:00,
2013-03-25 14:01:00,68.0,57.0,29.91,SW,236,0.0,7.0,67,0.00,,,0.00,weatherlink.com 1.10,2013-03-25 21:01:00,
2013-03-25 14:15:00,68.1,58.3,29.90,SSW,202,4.0,10.0,71,0.00,,---,0.00,VWS V14.01,2013-03-25 21:15:00,
2013-03-25 14:16:00,68.2,58.0,29.90,SW,233,2.0,9.0,70,0.00,,,0.00,weatherlink.com 1.10,2013-03-25 21:16:00,
2013-03-25 14:30:00,68.0,57.1,29.90,SSW,202,4.0,9.0,68,0.00,,---,0.00,VWS V14.01,2013-03-25 21:30:00,
2013-03-25 14:31:00,67.9,57.0,29.90,SSW,204,3.0,7.0,69,0.00,,,0.00,weatherlink.com 1.10,2013-03-25 21:31:00,
2013-03-25 14:45:00,67.4,57.3,29.89,SSW,202,3.0,8.0,70,0.00,,---,0.00,VWS V14.01,2013-03-25 21:45:00,
2013-03-25 15:00:00,67.4,57.7,29.89,SSW,202,4.0,10.0,71,0.00,,---,0.00,VWS V14.01,2013-03-25 22:00:00,
2013-03-25 15:01:00,67.2,57.0,29.89,SSW,200,2.0,8.0,70,0.00,,,0.00,weatherlink.com 1.10,2013-03-25 22:01:00,
2013-03-25 15:15:00,66.3,57.4,29.89,SSW,202,3.0,9.0,73,0.00,,---,0.00,VWS V14.01,2013-03-25 22:15:00,
2013-03-25 15:16:00,66.2,58.0,29.89,South,180,0.0,7.0,74,0.00,,,0.00,weatherlink.com 1.10,2013-03-25 22:16:00,
2013-03-25 15:30:00,65.8,57.7,29.89,SSW,202,4.0,10.0,75,0.00,,---,0.00,VWS V14.01,2013-03-25 22:30:00,
2013-03-25 15:31:00,65.9,58.0,29.89,South,182,5.0,10.0,75,0.00,,,0.00,weatherlink.com 1.10,2013-03-25 22:31:00,
2013-03-25 15:45:00,65.5,57.7,29.89,SSW,202,5.0,10.0,76,0.00,,---,0.00,VWS V14.01,2013-03-25 22:45:00,
2013-03-25 15:46:00,65.5,58.0,29.88,South,182,3.0,9.0,76,0.00,,,0.00,weatherlink.com 1.10,2013-03-25 22:46:00,
2013-03-25 16:00:00,65.4,58.0,29.88,SSW,202,5.0,11.0,77,0.00,,---,0.00,VWS V14.01,2013-03-25 23:00:00,
2013-03-25 16:01:00,65.6,58.0,29.88,SSW,196,5.0,8.0,76,0.00,,,0.00,weatherlink.com 1.10,2013-03-25 23:01:00,
2013-03-25 16:15:00,66.6,58.4,29.88,SSW,202,4.0,9.0,75,0.00,,---,0.00,VWS V14.01,2013-03-25 23:15:00,
2013-03-25 16:16:00,66.7,58.0,29.88,SSW,196,6.0,9.0,74,0.00,,,0.00,weatherlink.com 1.10,2013-03-25 23:16:00,
2013-03-25 16:30:00,67.0,58.5,29.88,South,180,4.0,10.0,74,0.00,,---,0.00,VWS V14.01,2013-03-25 23:30:00,
2013-03-25 16:31:00,66.8,58.0,29.88,SW,231,6.0,9.0,74,0.00,,,0.00,weatherlink.com 1.10,2013-03-25 23:31:00,
2013-03-25 16:45:00,66.4,57.9,29.88,SSW,202,4.0,10.0,74,0.00,,---,0.00,VWS V14.01,2013-03-25 23:45:00,
2013-03-25 17:00:00,66.0,57.5,29.88,SSW,202,5.0,11.0,74,0.00,,---,0.00,VWS V14.01,2013-03-26 00:00:00,
2013-03-25 17:01:00,65.8,58.0,29.88,SW,218,4.0,8.0,75,0.00,,,0.00,weatherlink.com 1.10,2013-03-26 00:01:00,
2013-03-25 17:15:00,65.4,57.7,29.88,SSW,202,4.0,12.0,76,0.00,,---,0.00,VWS V14.01,2013-03-26 00:15:00,
2013-03-25 17:16:00,65.1,57.0,29.88,SSW,194,4.0,8.0,76,0.00,,,0.00,weatherlink.com 1.10,2013-03-26 00:16:00,
2013-03-25 17:30:00,64.2,57.6,29.88,SSW,202,4.0,10.0,79,0.00,,---,0.00,VWS V14.01,2013-03-26 00:30:00,
2013-03-25 17:45:00,63.9,57.6,29.87,SSW,202,3.0,7.0,80,0.00,,---,0.00,VWS V14.01,2013-03-26 00:45:00,
2013-03-25 17:46:00,64.0,58.0,29.87,SSW,195,1.0,6.0,80,0.00,,,0.00,weatherlink.com 1.10,2013-03-26 00:46:00,
2013-03-25 18:00:00,63.8,57.5,29.88,SSW,202,3.0,8.0,80,0.00,,---,0.00,VWS V14.01,2013-03-26 01:00:00,
2013-03-25 18:15:00,62.5,57.3,29.88,SSW,202,3.0,9.0,83,0.00,,---,0.00,VWS V14.01,2013-03-26 01:15:00,
2013-03-25 18:16:00,62.3,57.0,29.88,South,188,4.0,9.0,84,0.00,,,0.00,weatherlink.com 1.10,2013-03-26 01:16:00,
2013-03-25 18:30:00,61.4,56.9,29.88,SSW,202,3.0,9.0,85,0.00,,---,0.00,VWS V14.01,2013-03-26 01:30:00,
2013-03-25 18:31:00,61.3,57.0,29.88,SSW,202,2.0,5.0,85,0.00,,,0.00,weatherlink.com 1.10,2013-03-26 01:31:00,
2013-03-25 18:45:00,60.9,57.0,29.88,SSW,202,2.0,5.0,87,0.00,,---,0.00,VWS V14.01,2013-03-26 01:45:00,
2013-03-25 18:46:00,60.8,57.0,29.88,SW,221,3.0,6.0,87,0.00,,,0.00,weatherlink.com 1.10,2013-03-26 01:46:00,
2013-03-25 19:00:00,60.5,56.9,29.88,South,180,2.0,6.0,88,0.00,,---,0.00,VWS V14.01,2013-03-26 02:00:00,
2013-03-25 19:01:00,60.5,57.0,29.88,SSW,194,1.0,5.0,88,0.00,,,0.00,weatherlink.com 1.10,2013-03-26 02:01:00,
2013-03-25 19:15:00,60.1,56.8,29.88,SSE,158,1.0,5.0,89,0.00,,---,0.00,VWS V14.01,2013-03-26 02:15:00,
2013-03-25 19:16:00,60.1,57.0,29.88,SSE,168,4.0,5.0,89,0.00,,,0.00,weatherlink.com 1.10,2013-03-26 02:16:00,
2013-03-25 19:30:00,59.8,56.6,29.88,SSE,158,1.0,4.0,89,0.00,,---,0.00,VWS V14.01,2013-03-26 02:30:00,
2013-03-25 19:31:00,59.8,57.0,29.88,SSE,151,0.0,4.0,90,0.00,,,0.00,weatherlink.com 1.10,2013-03-26 02:31:00,
2013-03-25 19:45:00,59.5,56.6,29.88,SE,135,0.0,2.0,90,0.00,,---,0.00,VWS V14.01,2013-03-26 02:45:00,
2013-03-25 20:00:00,59.1,56.2,29.89,SE,135,0.0,3.0,90,0.00,,---,0.00,VWS V14.01,2013-03-26 03:00:00,
2013-03-25 20:01:00,59.1,56.0,29.89,SE,127,0.0,3.0,90,0.00,,,0.00,weatherlink.com 1.10,2013-03-26 03:01:00,
2013-03-25 20:15:00,58.7,56.1,29.89,ESE,112,0.0,2.0,91,0.00,,---,0.00,VWS V14.01,2013-03-26 03:15:00,
2013-03-25 20:16:00,58.7,56.0,29.89,ESE,116,2.0,2.0,91,0.00,,,0.00,weatherlink.com 1.10,2013-03-26 03:16:00,
2013-03-25 20:30:00,58.6,56.3,29.90,ESE,112,1.0,4.0,92,0.00,,---,0.00,VWS V14.01,2013-03-26 03:30:00,
2013-03-25 20:31:00,58.6,56.0,29.90,ESE,108,0.0,4.0,92,0.00,,,0.00,weatherlink.com 1.10,2013-03-26 03:31:00,
2013-03-25 20:45:00,58.5,56.5,29.91,ESE,112,0.0,3.0,93,0.00,,---,0.00,VWS V14.01,2013-03-26 03:45:00,
2013-03-25 20:46:00,58.5,57.0,29.91,ESE,116,1.0,3.0,93,0.00,,,0.00,weatherlink.com 1.10,2013-03-26 03:46:00,
2013-03-25 21:00:00,58.3,56.0,29.91,ESE,112,0.0,3.0,92,0.00,,---,0.00,VWS V14.01,2013-03-26 04:00:00,
2013-03-25 21:01:00,58.3,56.0,29.91,ESE,116,0.0,2.0,93,0.00,,,0.00,weatherlink.com 1.10,2013-03-26 04:01:00,
2013-03-25 21:15:00,58.0,55.7,29.91,ESE,112,0.0,2.0,92,0.00,,---,0.00,VWS V14.01,2013-03-26 04:15:00,
2013-03-25 21:16:00,57.9,56.0,29.91,ESE,116,1.0,2.0,92,0.00,,,0.00,weatherlink.com 1.10,2013-03-26 04:16:00,
2013-03-25 21:30:00,57.7,55.7,29.92,ESE,112,0.0,2.0,93,0.00,,---,0.00,VWS V14.01,2013-03-26 04:30:00,
2013-03-25 21:31:00,57.7,56.0,29.92,ESE,116,1.0,3.0,93,0.00,,,0.00,weatherlink.com 1.10,2013-03-26 04:31:00,
2013-03-25 21:45:00,57.4,55.4,29.92,ESE,112,0.0,3.0,93,0.00,,---,0.00,VWS V14.01,2013-03-26 04:45:00,
2013-03-25 21:46:00,57.4,55.0,29.92,ESE,115,0.0,0.0,93,0.00,,,0.00,weatherlink.com 1.10,2013-03-26 04:46:00,
2013-03-25 22:00:00,57.1,55.4,29.92,ESE,112,0.0,2.0,94,0.00,,---,0.00,VWS V14.01,2013-03-26 05:00:00,
2013-03-25 22:01:00,57.0,55.0,29.92,ESE,115,0.0,1.0,94,0.00,,,0.00,weatherlink.com 1.10,2013-03-26 05:01:00,
2013-03-25 22:15:00,56.8,55.1,29.93,ESE,112,0.0,2.0,94,0.00,,---,0.00,VWS V14.01,2013-03-26 05:15:00,
2013-03-25 22:16:00,56.8,55.0,29.93,ESE,115,0.0,2.0,94,0.00,,,0.00,weatherlink.com 1.10,2013-03-26 05:16:00,
2013-03-25 22:30:00,56.3,54.3,29.93,ESE,112,0.0,1.0,93,0.00,,---,0.00,VWS V14.01,2013-03-26 05:30:00,
2013-03-25 22:45:00,55.8,54.1,29.93,ESE,112,0.0,1.0,94,0.00,,---,0.00,VWS V14.01,2013-03-26 05:45:00,
2013-03-25 22:46:00,55.7,54.0,29.93,ESE,115,0.0,0.0,94,0.00,,,0.00,weatherlink.com 1.10,2013-03-26 05:46:00,
2013-03-25 23:00:00,55.3,53.6,29.93,ESE,112,0.0,0.0,94,0.00,,---,0.00,VWS V14.01,2013-03-26 06:00:00,
2013-03-25 23:01:00,55.2,54.0,29.93,ESE,115,0.0,0.0,94,0.00,,,0.00,weatherlink.com 1.10,2013-03-26 06:01:00,
2013-03-25 23:15:00,54.9,53.5,29.94,ESE,112,0.0,1.0,95,0.00,,---,0.00,VWS V14.01,2013-03-26 06:15:00,
2013-03-25 23:16:00,54.9,54.0,29.93,ESE,115,0.0,1.0,95,0.00,,,0.00,weatherlink.com 1.10,2013-03-26 06:16:00,
2013-03-25 23:30:00,54.9,53.5,29.93,ESE,112,0.0,0.0,95,0.00,,---,0.00,VWS V14.01,2013-03-26 06:30:00,
2013-03-25 23:31:00,54.9,54.0,29.93,ESE,115,0.0,0.0,95,0.00,,,0.00,weatherlink.com 1.10,2013-03-26 06:31:00,
2013-03-25 23:45:00,54.7,53.3,29.93,ESE,112,0.0,0.0,95,0.00,,---,0.00,VWS V14.01,2013-03-26 06:45:00,
2013-03-25 23:46:00,54.6,53.0,29.93,ESE,115,0.0,1.0,95,0.00,,,0.00,weatherlink.com 1.10,2013-03-26 06:46:00,